When you browse on this site, cookies collect data to enhance your experience and personalize the content and advertising you see.
Visit our Privacy Policy to learn more. By continuing to use the site, you agree to this use of cookies and data.
  • In Lithuania
  • List of Countries
  • For 7 days
  • Water Temperature
  • Satellite Maps
  • Weather Map
  • Weather Widgets
  • user-avatar
    Login

    Hourly Weather Salva

    Today, 25 May, Saturday

    Time Temperature Precipitation Wind Pressure Humidity
    00:00 +34°C° 0 mm 1 mps 756 mmHg 31%
    01:00 +34°C° 0 mm 1 mps 756 mmHg 32%
    02:00 +33°C° 0 mm 1 mps 755 mmHg 33%
    03:00 +30°C° 0 mm 0 mps 755 mmHg 36%
    04:00 +32°C° 0 mm 1 mps 756 mmHg 35%
    05:00 +33°C° 0 mm 1 mps 756 mmHg 34%
    06:00 +33°C° 0 mm 1 mps 756 mmHg 33%
    07:00 +35°C° 0 mm 1 mps 757 mmHg 29%
    08:00 +36°C° 0 mm 1 mps 757 mmHg 25%
    09:00 +39°C° 0 mm 1 mps 757 mmHg 20%
    10:00 +41°C° 0 mm 2 mps 757 mmHg 17%
    11:00 +42°C° 0 mm 2 mps 757 mmHg 14%
    12:00 +44°C° 0 mm 3 mps 756 mmHg 11%
    13:00 +45°C° 0 mm 3 mps 756 mmHg 10%
    14:00 +45°C° 0 mm 4 mps 756 mmHg 10%
    15:00 +47°C° 0 mm 4 mps 755 mmHg 9%
    16:00 +45°C° 0 mm 4 mps 755 mmHg 11%
    17:00 +44°C° 0 mm 4 mps 755 mmHg 13%
    18:00 +43°C° 0 mm 4 mps 755 mmHg 15%
    19:00 +42°C° 0 mm 4 mps 755 mmHg 18%
    20:00 +39°C° 0 mm 3 mps 755 mmHg 21%
    21:00 +38°C° 0 mm 3 mps 755 mmHg 25%
    22:00 +37°C° 0 mm 2 mps 755 mmHg 26%
    23:00 +37°C° 0 mm 2 mps 755 mmHg 28%

    Tomorrow, 26 May, Sunday

    Time Temperature Precipitation Wind Pressure Humidity
    00:00 +36°C° 0 mm 2 mps 755 mmHg 30%
    01:00 +35°C° 0 mm 2 mps 755 mmHg 32%
    02:00 +35°C° 0 mm 2 mps 754 mmHg 34%
    03:00 +34°C° 0 mm 2 mps 754 mmHg 35%
    04:00 +33°C° 0 mm 1 mps 755 mmHg 36%
    05:00 +33°C° 0 mm 1 mps 755 mmHg 36%
    06:00 +31°C° 0 mm 0 mps 755 mmHg 36%
    07:00 +32°C° 0 mm 0 mps 755 mmHg 32%
    08:00 +34°C° 0 mm 0 mps 755 mmHg 27%
    09:00 +36°C° 0 mm 0 mps 756 mmHg 23%
    10:00 +40°C° 0 mm 1 mps 755 mmHg 19%
    11:00 +42°C° 0 mm 2 mps 755 mmHg 16%
    12:00 +44°C° 0 mm 3 mps 755 mmHg 13%
    13:00 +45°C° 0 mm 4 mps 754 mmHg 13%
    14:00 +45°C° 0 mm 4 mps 754 mmHg 12%
    15:00 +46°C° 0 mm 5 mps 753 mmHg 12%
    16:00 +45°C° 0 mm 5 mps 753 mmHg 14%
    17:00 +43°C° 0 mm 5 mps 753 mmHg 16%
    18:00 +42°C° 0 mm 5 mps 753 mmHg 18%
    19:00 +41°C° 0 mm 4 mps 754 mmHg 20%
    20:00 +38°C° 0 mm 3 mps 754 mmHg 23%
    21:00 +37°C° 0 mm 2 mps 754 mmHg 25%
    22:00 +35°C° 0 mm 1 mps 754 mmHg 27%
    23:00 +34°C° 0 mm 1 mps 754 mmHg 28%

    Day after tomorrow, 27 May, Monday

    Time Temperature Precipitation Wind Pressure Humidity
    00:00 +34°C° 0 mm 1 mps 754 mmHg 29%
    01:00 +33°C° 0 mm 1 mps 754 mmHg 30%
    02:00 +34°C° 0 mm 2 mps 753 mmHg 31%
    03:00 +33°C° 0 mm 3 mps 753 mmHg 32%
    04:00 +32°C° 0 mm 2 mps 754 mmHg 33%
    05:00 +32°C° 0 mm 2 mps 754 mmHg 34%
    06:00 +32°C° 0 mm 1 mps 754 mmHg 36%
    07:00 +34°C° 0 mm 1 mps 754 mmHg 31%
    08:00 +36°C° 0 mm 1 mps 755 mmHg 26%
    09:00 +35°C° 0 mm 0 mps 755 mmHg 20%
    10:00 +40°C° 0 mm 1 mps 755 mmHg 17%
    11:00 +42°C° 0 mm 2 mps 755 mmHg 13%
    12:00 +44°C° 0 mm 3 mps 755 mmHg 10%
    13:00 +44°C° 0 mm 3 mps 754 mmHg 9%
    14:00 +45°C° 0 mm 3 mps 754 mmHg 8%
    15:00 +45°C° 0 mm 3 mps 753 mmHg 8%
    16:00 +44°C° 0 mm 4 mps 753 mmHg 9%
    17:00 +44°C° 0 mm 4 mps 753 mmHg 11%
    18:00 +43°C° 0 mm 4 mps 753 mmHg 12%
    19:00 +41°C° 0 mm 4 mps 754 mmHg 16%
    20:00 +39°C° 0 mm 3 mps 754 mmHg 19%
    21:00 +37°C° 0 mm 2 mps 754 mmHg 23%
    22:00 +37°C° 0 mm 2 mps 754 mmHg 24%
    23:00 +35°C° 0 mm 1 mps 754 mmHg 26%

    28 May, Tuesday

    Time Temperature Precipitation Wind Pressure Humidity
    00:00 +34°C° 0 mm 1 mps 754 mmHg 27%
    01:00 +33°C° 0 mm 1 mps 754 mmHg 28%
    02:00 +31°C° 0 mm 0 mps 753 mmHg 29%
    03:00 +30°C° 0 mm 0 mps 753 mmHg 30%
    04:00 +31°C° 0 mm 0 mps 754 mmHg 29%
    05:00 +33°C° 0 mm 1 mps 754 mmHg 28%
    06:00 +34°C° 0 mm 1 mps 754 mmHg 27%
    07:00 +36°C° 0 mm 1 mps 754 mmHg 24%
    08:00 +37°C° 0 mm 1 mps 755 mmHg 21%
    09:00 +40°C° 0 mm 1 mps 755 mmHg 19%
    10:00 +42°C° 0 mm 2 mps 755 mmHg 16%
    11:00 +45°C° 0 mm 3 mps 755 mmHg 14%
    12:00 +46°C° 0 mm 3 mps 754 mmHg 11%
    13:00 +48°C° 0 mm 4 mps 754 mmHg 11%
    14:00 +48°C° 0 mm 5 mps 753 mmHg 11%
    15:00 +48°C° 0 mm 5 mps 753 mmHg 10%
    16:00 +47°C° 0 mm 5 mps 753 mmHg 11%
    17:00 +45°C° 0 mm 4 mps 753 mmHg 12%
    18:00 +44°C° 0 mm 4 mps 753 mmHg 13%
    19:00 +43°C° 0 mm 3 mps 753 mmHg 15%
    20:00 +42°C° 0 mm 3 mps 754 mmHg 17%
    21:00 +40°C° 0 mm 3 mps 754 mmHg 19%
    22:00 +39°C° 0 mm 2 mps 754 mmHg 20%
    23:00 +38°C° 0 mm 2 mps 754 mmHg 20%

    29 May, Wednesday

    Time Temperature Precipitation Wind Pressure Humidity
    00:00 +38°C° 0 mm 2 mps 754 mmHg 21%
    01:00 +36°C° 0 mm 1 mps 754 mmHg 21%
    02:00 +35°C° 0 mm 1 mps 753 mmHg 21%
    03:00 +34°C° 0 mm 1 mps 753 mmHg 20%
    04:00 +35°C° 0 mm 1 mps 753 mmHg 22%
    05:00 +36°C° 0 mm 2 mps 754 mmHg 23%
    06:00 +36°C° 0 mm 3 mps 754 mmHg 25%
    07:00 +38°C° 0 mm 3 mps 754 mmHg 22%
    08:00 +40°C° 0 mm 2 mps 754 mmHg 20%
    09:00 +42°C° 0 mm 2 mps 755 mmHg 17%
    10:00 +43°C° 0 mm 2 mps 754 mmHg 15%
    11:00 +44°C° 0 mm 1 mps 754 mmHg 12%
    12:00 +43°C° 0 mm 0 mps 754 mmHg 10%
    13:00 +46°C° 0 mm 1 mps 753 mmHg 9%
    14:00 +48°C° 0 mm 2 mps 753 mmHg 8%
    15:00 +48°C° 0 mm 2 mps 752 mmHg 7%
    16:00 +48°C° 0 mm 2 mps 752 mmHg 8%
    17:00 +47°C° 0 mm 3 mps 752 mmHg 8%
    18:00 +46°C° 0 mm 3 mps 752 mmHg 8%
    19:00 +45°C° 0 mm 3 mps 753 mmHg 10%
    20:00 +44°C° 0 mm 3 mps 753 mmHg 11%
    21:00 +42°C° 0 mm 3 mps 754 mmHg 12%
    22:00 +40°C° 0 mm 2 mps 753 mmHg 14%
    23:00 +39°C° 0 mm 2 mps 753 mmHg 15%

    30 May, Thursday

    Time Temperature Precipitation Wind Pressure Humidity
    00:00 +38°C° 0 mm 2 mps 753 mmHg 17%
    01:00 +38°C° 0 mm 2 mps 753 mmHg 17%
    02:00 +37°C° 0 mm 2 mps 752 mmHg 18%
    03:00 +37°C° 0 mm 2 mps 752 mmHg 18%
    04:00 +37°C° 0 mm 2 mps 753 mmHg 18%
    05:00 +37°C° 0 mm 2 mps 753 mmHg 17%
    06:00 +37°C° 0 mm 2 mps 753 mmHg 17%
    07:00 +39°C° 0 mm 2 mps 754 mmHg 16%
    08:00 +41°C° 0 mm 2 mps 754 mmHg 15%
    09:00 +42°C° 0 mm 2 mps 754 mmHg 13%
    10:00 +43°C° 0 mm 1 mps 754 mmHg 12%
    11:00 +45°C° 0 mm 1 mps 753 mmHg 10%
    12:00 +43°C° 0 mm 0 mps 753 mmHg 8%
    13:00 +47°C° 0 mm 1 mps 752 mmHg 8%
    14:00 +48°C° 0 mm 2 mps 752 mmHg 7%
    15:00 +50°C° 0 mm 3 mps 752 mmHg 7%
    16:00 +48°C° 0 mm 3 mps 752 mmHg 8%
    17:00 +47°C° 0 mm 3 mps 752 mmHg 8%
    18:00 +46°C° 0 mm 3 mps 752 mmHg 9%
    19:00 +45°C° 0 mm 3 mps 752 mmHg 12%
    20:00 +43°C° 0 mm 4 mps 752 mmHg 15%
    21:00 +42°C° 0 mm 4 mps 753 mmHg 18%
    22:00 +41°C° 0 mm 4 mps 752 mmHg 19%
    23:00 +40°C° 0 mm 4 mps 752 mmHg 19%
    Show more